DLH46P LOWS-EDDF

Flight info

Callsign DLH46P
Flight time 0h 43m
Altitude 30000
Route INROM DCT SIMBA Y700 NENUM T161 DEBHI DEBHI1B
Aircraft A319/M-SDE3FGHIRWY/LB1

Departure

Time 2026-05-04 12:20
Airport Salzburg Airport (LOWS)

Arrival

Time 2026-05-04 13:04
Airport Frankfurt Main Airport (EDDF)
Time Latitude Longitude Altitude Speed Heading
2026-05-04 11:50 47.79094 12.99960 1422 ft 0 kts 282°
2026-05-04 12:14 47.79098 12.99959 1422 ft 0 kts 323°
2026-05-04 12:15 47.79100 12.99961 1422 ft 0 kts 353°
2026-05-04 12:15 47.79102 12.99968 1422 ft 1 kts 55°
2026-05-04 12:15 47.79104 12.99993 1422 ft 4 kts 86°
2026-05-04 12:15 47.79102 13.00044 1422 ft 5 kts 107°
2026-05-04 12:16 47.79072 13.00079 1422 ft 7 kts 154°
2026-05-04 12:16 47.79021 13.00112 1422 ft 8 kts 156°
2026-05-04 12:16 47.78969 13.00153 1422 ft 9 kts 139°
2026-05-04 12:16 47.78955 13.00248 1422 ft 10 kts 94°
2026-05-04 12:17 47.78948 13.00348 1421 ft 11 kts 106°
2026-05-04 12:17 47.78872 13.00418 1422 ft 14 kts 157°
2026-05-04 12:17 47.78778 13.00477 1420 ft 15 kts 157°
2026-05-04 12:17 47.78683 13.00538 1421 ft 15 kts 156°
2026-05-04 12:18 47.78588 13.00596 1422 ft 15 kts 157°
2026-05-04 12:18 47.78491 13.00657 1421 ft 16 kts 157°
2026-05-04 12:18 47.78391 13.00721 1421 ft 16 kts 157°
2026-05-04 12:18 47.78289 13.00786 1421 ft 16 kts 157°
2026-05-04 12:19 47.78197 13.00883 1420 ft 17 kts 124°
2026-05-04 12:19 47.78198 13.01031 1417 ft 10 kts 60°
2026-05-04 12:19 47.78252 13.01072 1417 ft 9 kts
2026-05-04 12:19 47.78313 13.01041 1420 ft 12 kts 336°
2026-05-04 12:20 47.78562 13.00882 1423 ft 74 kts 337°
2026-05-04 12:20 47.78974 13.00623 1422 ft 116 kts 337°
2026-05-04 12:20 47.79868 13.00063 1551 ft 150 kts 338°
2026-05-04 12:20 47.80826 12.99454 2123 ft 151 kts 339°
2026-05-04 12:21 47.81833 12.98877 2588 ft 161 kts 350°
2026-05-04 12:21 47.82979 12.99088 2837 ft 180 kts 31°
2026-05-04 12:21 47.84002 13.00293 3293 ft 195 kts 39°
2026-05-04 12:21 47.85156 13.01618 3628 ft 224 kts 38°
2026-05-04 12:22 47.86484 13.03067 4120 ft 249 kts 37°
2026-05-04 12:22 47.87934 13.04625 4837 ft 262 kts 37°
2026-05-04 12:22 47.89455 13.06253 5688 ft 271 kts 37°
2026-05-04 12:22 47.91029 13.07904 6453 ft 282 kts 32°
2026-05-04 12:23 47.92898 13.08911 7201 ft 291 kts
2026-05-04 12:23 47.94919 13.08731 8089 ft 293 kts 349°
2026-05-04 12:23 47.96936 13.08229 9006 ft 297 kts 349°
2026-05-04 12:23 47.98990 13.07700 9921 ft 300 kts 348°
2026-05-04 12:24 48.01096 13.07153 10456 ft 317 kts 348°
2026-05-04 12:24 48.03346 13.06569 10734 ft 341 kts 348°
2026-05-04 12:24 48.05745 13.05952 11206 ft 356 kts 348°
2026-05-04 12:24 48.08210 13.05327 11921 ft 362 kts 348°
2026-05-04 12:25 48.10721 13.04694 12699 ft 366 kts 348°
2026-05-04 12:25 48.13251 13.04055 13466 ft 370 kts 348°
2026-05-04 12:25 48.15803 13.03413 14171 ft 374 kts 348°
2026-05-04 12:25 48.18381 13.02764 14843 ft 378 kts 348°
2026-05-04 12:26 48.20993 13.02102 15519 ft 381 kts 348°
2026-05-04 12:26 48.23610 13.01433 16188 ft 384 kts 348°
2026-05-04 12:26 48.26268 13.00795 16858 ft 388 kts 349°
2026-05-04 12:26 48.28946 13.00199 17526 ft 391 kts 349°
2026-05-04 12:27 48.31658 12.99620 18191 ft 395 kts 349°
2026-05-04 12:27 48.34409 12.99043 18790 ft 398 kts 350°
2026-05-04 12:27 48.37159 12.98459 19356 ft 402 kts 349°
2026-05-04 12:27 48.39949 12.97854 19916 ft 405 kts 349°
2026-05-04 12:28 48.42749 12.97239 20490 ft 409 kts 349°
2026-05-04 12:28 48.45582 12.96611 21048 ft 412 kts 349°
2026-05-04 12:28 48.48376 12.95664 21583 ft 413 kts 339°
2026-05-04 12:28 48.50985 12.93851 22112 ft 413 kts 327°
2026-05-04 12:29 48.53259 12.91302 22631 ft 413 kts 315°
2026-05-04 12:29 48.55168 12.88048 23131 ft 413 kts 303°
2026-05-04 12:29 48.56581 12.84283 23605 ft 413 kts 291°
2026-05-04 12:29 48.57648 12.80211 24022 ft 415 kts 289°
2026-05-04 12:30 48.58699 12.76141 24465 ft 417 kts 289°
2026-05-04 12:30 48.59745 12.72103 24888 ft 418 kts 289°
2026-05-04 12:30 48.60806 12.68002 25324 ft 420 kts 289°
2026-05-04 12:30 48.61871 12.63883 25754 ft 422 kts 289°
2026-05-04 12:31 48.62940 12.59739 26180 ft 423 kts 289°
2026-05-04 12:31 48.64009 12.55581 26598 ft 425 kts 289°
2026-05-04 12:31 48.65081 12.51404 27011 ft 426 kts 289°
2026-05-04 12:31 48.66165 12.47159 27433 ft 428 kts 289°
2026-05-04 12:32 48.67236 12.42953 27841 ft 430 kts 289°
2026-05-04 12:32 48.69394 12.34466 28626 ft 433 kts 289°
2026-05-04 12:32 48.70475 12.30202 28996 ft 435 kts 289°
2026-05-04 12:33 48.71549 12.25965 29373 ft 436 kts 289°
2026-05-04 12:33 48.72642 12.21635 29754 ft 438 kts 288°
2026-05-04 12:33 48.73724 12.17344 29958 ft 437 kts 288°
2026-05-04 12:34 48.75384 12.08745 29982 ft 422 kts 277°
2026-05-04 12:34 48.76324 11.99968 29982 ft 421 kts 277°
2026-05-04 12:35 48.77262 11.91216 29982 ft 420 kts 277°
2026-05-04 12:35 48.78215 11.82444 29981 ft 421 kts 277°
2026-05-04 12:36 48.79147 11.73677 29973 ft 421 kts 276°
2026-05-04 12:36 48.80061 11.64892 29966 ft 421 kts 276°
2026-05-04 12:37 48.80971 11.56165 29962 ft 421 kts 276°
2026-05-04 12:37 48.81892 11.47318 29963 ft 422 kts 276°
2026-05-04 12:38 48.82788 11.38575 29975 ft 422 kts 276°
2026-05-04 12:38 48.83702 11.29734 29977 ft 422 kts 278°
2026-05-04 12:39 48.85830 11.21404 29989 ft 429 kts 298°
2026-05-04 12:39 48.89779 11.14561 29986 ft 437 kts 314°
2026-05-04 12:40 48.94298 11.08279 29989 ft 436 kts 314°
2026-05-04 12:40 48.98743 11.02059 29992 ft 437 kts 313°
2026-05-04 12:41 49.03221 10.95773 29997 ft 438 kts 313°
2026-05-04 12:41 49.07708 10.89448 30004 ft 439 kts 313°
2026-05-04 12:42 49.12197 10.83107 30015 ft 439 kts 313°
2026-05-04 12:42 49.16690 10.76747 29921 ft 441 kts 313°
2026-05-04 12:42 49.18926 10.73577 29335 ft 438 kts 313°
2026-05-04 12:43 49.21135 10.70374 28661 ft 433 kts 311°
2026-05-04 12:43 49.23253 10.67132 28007 ft 429 kts 310°
2026-05-04 12:43 49.25315 10.63856 27346 ft 426 kts 310°
2026-05-04 12:43 49.27339 10.60589 26712 ft 423 kts 309°
2026-05-04 12:44 49.29355 10.57331 26096 ft 419 kts 310°
2026-05-04 12:44 49.31368 10.54096 25477 ft 416 kts 310°
2026-05-04 12:44 49.33366 10.50904 24865 ft 414 kts 310°
2026-05-04 12:44 49.35357 10.47730 24253 ft 411 kts 309°
2026-05-04 12:45 49.37093 10.44272 23696 ft 412 kts 301°
2026-05-04 12:45 49.38720 10.40667 23255 ft 409 kts 302°
2026-05-04 12:45 49.40358 10.37112 22788 ft 404 kts 302°
2026-05-04 12:45 49.41982 10.33613 22332 ft 399 kts 302°
2026-05-04 12:46 49.43581 10.30159 21897 ft 394 kts 302°
2026-05-04 12:46 49.45177 10.26689 21449 ft 390 kts 301°
2026-05-04 12:46 49.46727 10.23291 21018 ft 386 kts 301°
2026-05-04 12:46 49.48253 10.19929 20623 ft 381 kts 301°
2026-05-04 12:47 49.49272 10.17680 20370 ft 379 kts 301°
2026-05-04 12:47 49.50778 10.14354 20004 ft 377 kts 301°
2026-05-04 12:47 49.52271 10.11049 19643 ft 375 kts 301°
2026-05-04 12:47 49.53755 10.07756 19292 ft 373 kts 301°
2026-05-04 12:48 49.55233 10.04477 18930 ft 371 kts 301°
2026-05-04 12:48 49.56706 10.01211 18577 ft 370 kts 301°
2026-05-04 12:48 49.58167 9.97970 18220 ft 368 kts 301°
2026-05-04 12:48 49.59623 9.94732 17818 ft 366 kts 301°
2026-05-04 12:49 49.61056 9.91537 17436 ft 364 kts 301°
2026-05-04 12:49 49.62495 9.88324 17041 ft 362 kts 301°
2026-05-04 12:49 49.63922 9.85136 16638 ft 360 kts 302°
2026-05-04 12:49 49.65339 9.81967 16262 ft 358 kts 302°
2026-05-04 12:50 49.66748 9.78810 15891 ft 357 kts 302°
2026-05-04 12:50 49.68173 9.75614 15512 ft 355 kts 302°
2026-05-04 12:50 49.69553 9.72526 15146 ft 353 kts 302°
2026-05-04 12:50 49.70947 9.69402 14782 ft 352 kts 302°
2026-05-04 12:51 49.72326 9.66307 14429 ft 350 kts 302°
2026-05-04 12:51 49.73726 9.63190 14064 ft 349 kts 305°
2026-05-04 12:51 49.75384 9.60445 13696 ft 349 kts 314°
2026-05-04 12:51 49.77128 9.57828 13293 ft 347 kts 314°
2026-05-04 12:52 49.78850 9.55255 12897 ft 343 kts 314°
2026-05-04 12:52 49.80641 9.52584 12499 ft 338 kts 314°
2026-05-04 12:52 49.82247 9.50197 12140 ft 335 kts 314°
2026-05-04 12:52 49.83920 9.47716 11742 ft 331 kts 314°
2026-05-04 12:53 49.85573 9.45272 11370 ft 327 kts 314°
2026-05-04 12:53 49.87196 9.42886 11245 ft 316 kts 314°
2026-05-04 12:53 49.88763 9.40590 11116 ft 305 kts 314°
2026-05-04 12:53 49.90301 9.38350 10874 ft 300 kts 314°
2026-05-04 12:54 49.91814 9.36153 10553 ft 298 kts 314°
2026-05-04 12:54 49.93326 9.33963 10219 ft 296 kts 314°
2026-05-04 12:54 49.94849 9.31762 9869 ft 295 kts 314°
2026-05-04 12:54 49.96335 9.29623 9495 ft 293 kts 314°
2026-05-04 12:55 49.97843 9.27449 9118 ft 291 kts 314°
2026-05-04 12:55 49.99309 9.25305 8757 ft 288 kts 314°
2026-05-04 12:55 50.00759 9.23178 8409 ft 286 kts 314°
2026-05-04 12:55 50.02203 9.21061 8063 ft 283 kts 314°
2026-05-04 12:56 50.03629 9.18969 7727 ft 281 kts 314°
2026-05-04 12:56 50.05071 9.16851 7376 ft 279 kts 314°
2026-05-04 12:56 50.06454 9.14833 7061 ft 277 kts 314°
2026-05-04 12:56 50.07846 9.12792 6816 ft 270 kts 314°
2026-05-04 12:57 50.09187 9.10821 6562 ft 263 kts 314°
2026-05-04 12:57 50.10512 9.08873 6267 ft 260 kts 314°
2026-05-04 12:57 50.11764 9.06872 5898 ft 255 kts 302°
2026-05-04 12:57 50.12467 9.04394 5578 ft 248 kts 285°
2026-05-04 12:58 50.12960 9.01852 5349 ft 240 kts 284°
2026-05-04 12:58 50.13302 8.99368 5123 ft 231 kts 270°
2026-05-04 12:58 50.13048 8.96958 4899 ft 225 kts 249°
2026-05-04 12:58 50.12508 8.94671 4748 ft 224 kts 249°
2026-05-04 12:59 50.11966 8.92355 4591 ft 223 kts 249°
2026-05-04 12:59 50.11441 8.90114 4472 ft 224 kts 249°
2026-05-04 12:59 50.10907 8.87843 4227 ft 222 kts 249°
2026-05-04 12:59 50.10381 8.85603 3949 ft 219 kts 249°
2026-05-04 13:00 50.09859 8.83384 3660 ft 217 kts 249°
2026-05-04 13:00 50.09337 8.81169 3382 ft 214 kts 249°
2026-05-04 13:00 50.08822 8.78983 3077 ft 214 kts 249°
2026-05-04 13:00 50.08318 8.76848 2797 ft 205 kts 249°
2026-05-04 13:01 50.07844 8.74840 2534 ft 191 kts 249°
2026-05-04 13:01 50.07406 8.72987 2317 ft 176 kts 249°
2026-05-04 13:01 50.06996 8.71258 2068 ft 163 kts 248°
2026-05-04 13:01 50.06623 8.69681 1861 ft 148 kts 249°
2026-05-04 13:02 50.06287 8.68266 1681 ft 137 kts 249°
2026-05-04 13:02 50.05958 8.66891 1500 ft 134 kts 248°
2026-05-04 13:02 50.05628 8.65539 1331 ft 133 kts 248°
2026-05-04 13:02 50.05306 8.64188 1170 ft 132 kts 249°
2026-05-04 13:03 50.04999 8.62838 996 ft 133 kts 250°
2026-05-04 13:03 50.04690 8.61546 822 ft 133 kts 251°
2026-05-04 13:03 50.04362 8.60157 638 ft 134 kts 250°
2026-05-04 13:03 50.04038 8.58799 456 ft 134 kts 250°
2026-05-04 13:04 50.03722 8.57484 367 ft 115 kts 249°
2026-05-04 13:04 50.03507 8.56564 359 ft 71 kts 249°
2026-05-04 13:04 50.03380 8.56031 358 ft 39 kts 249°
2026-05-04 13:04 50.03312 8.55711 357 ft 28 kts 257°
2026-05-04 13:05 50.03319 8.55459 358 ft 20 kts 279°
2026-05-04 13:05 50.03338 8.55278 361 ft 14 kts 279°
2026-05-04 13:05 50.03389 8.55168 362 ft 13 kts 352°
2026-05-04 13:05 50.03442 8.55265 366 ft 13 kts 69°
2026-05-04 13:06 50.03478 8.55413 369 ft 17 kts 69°
2026-05-04 13:06 50.03524 8.55606 366 ft 21 kts 70°
2026-05-04 13:06 50.03575 8.55819 365 ft 21 kts 70°
2026-05-04 13:06 50.03626 8.56032 366 ft 21 kts 69°
2026-05-04 13:07 50.03677 8.56249 364 ft 21 kts 70°
2026-05-04 13:07 50.03729 8.56468 366 ft 22 kts 69°
2026-05-04 13:07 50.03782 8.56688 370 ft 22 kts 69°
2026-05-04 13:07 50.03837 8.56917 364 ft 23 kts 70°
2026-05-04 13:08 50.03891 8.57145 366 ft 23 kts 69°
2026-05-04 13:08 50.03947 8.57378 366 ft 23 kts 69°
2026-05-04 13:08 50.04003 8.57611 366 ft 23 kts 70°
2026-05-04 13:08 50.04059 8.57849 366 ft 24 kts 70°
2026-05-04 13:09 50.04113 8.58069 368 ft 21 kts 69°
2026-05-04 13:09 50.04165 8.58282 367 ft 21 kts 70°
2026-05-04 13:09 50.04216 8.58497 370 ft 21 kts 69°
2026-05-04 13:09 50.04267 8.58714 365 ft 22 kts 70°
2026-05-04 13:10 50.04320 8.58933 371 ft 22 kts 69°
2026-05-04 13:10 50.04375 8.59159 367 ft 22 kts 70°
2026-05-04 13:10 50.04416 8.59331 366 ft 16 kts 70°
2026-05-04 13:10 50.04461 8.59461 365 ft 11 kts 35°
2026-05-04 13:11 50.04539 8.59469 365 ft 9 kts 357°
2026-05-04 13:11 50.04553 8.59468 371 ft 1 kts 357°
2026-05-04 13:11 50.04557 8.59468 369 ft 0 kts 357°
2026-05-04 13:13 50.04574 8.59467 368 ft 6 kts 357°
2026-05-04 13:13 50.04630 8.59462 364 ft 9 kts 355°
2026-05-04 13:13 50.04703 8.59440 367 ft 12 kts 346°
2026-05-04 13:14 50.04781 8.59395 365 ft 12 kts 339°
2026-05-04 13:14 50.04828 8.59351 368 ft 12 kts 311°
2026-05-04 13:14 50.04837 8.59228 365 ft 10 kts 251°
2026-05-04 13:14 50.04814 8.59134 369 ft 6 kts 250°
2026-05-04 13:15 50.04800 8.59070 371 ft 7 kts 250°
2026-05-04 13:15 50.04806 8.59011 367 ft 6 kts 327°
2026-05-04 13:15 50.04848 8.58988 367 ft 7 kts 339°
2026-05-04 13:15 50.04869 8.58976 366 ft 1 kts 340°
2026-05-04 13:16 50.04871 8.58974 366 ft 0 kts 340°